EW9366 Weather Reports


Display with metric or nautical units.
time (UTC)temp
F
wind
direction
speed
MPH
gust
MPH
rain 1hr
in
rain 24hr
in
rain mn
in
humidity
%
barometer
mb
20260507010017 58 68 1.0 4.0 0.00 0.00 0.00 60 1015.7
20260507005516 59 101 1.0 4.0 0.00 0.00 0.00 59 1015.6
20260507005431 60 169 1.0 3.0 0.00 0.00 0.00 58 1015.5
20260507004444 60 49 1.0 5.0 0.00 0.00 0.00 57 1015.5
20260507003918 60 59 1.0 5.0 0.00 0.00 0.00 56 1015.6
20260507003415 61 21 1.0 6.0 0.00 0.00 0.00 56 1015.7
20260507002847 60 41 1.0 6.0 0.00 0.00 0.00 58 1015.7
20260507002340 60 63 1.0 6.0 0.00 0.00 0.00 57 1015.6
20260507001825 60 77 2.0 6.0 0.00 0.00 0.00 57 1015.5
20260507001329 60 27 2.0 5.0 0.00 0.00 0.00 55 1015.4
20260507000801 60 84 2.0 5.0 0.00 0.00 0.00 56 1015.4
20260507000259 60 38 3.0 7.0 0.00 0.00 0.00 55 1015.4
20260507000241 61 86 3.0 7.0 0.00 0.00 0.00 55 1015.5
20260506235254 61 106 3.0 7.0 0.00 0.00 0.00 56 1015.4
20260506234753 60 73 3.0 9.0 0.00 0.00 0.00 56 1015.4
20260506234740 60 47 3.0 9.0 0.00 0.00 0.00 56 1015.4
20260506233752 60 23 3.0 8.0 0.00 0.00 0.00 56 1015.4
20260506233254 60 6 2.0 5.0 0.00 0.00 0.00 57 1015.3
20260506232752 60 28 3.0 7.0 0.00 0.00 0.00 59 1015.3
20260506232730 60 61 3.0 7.0 0.00 0.00 0.00 57 1015.2
20260506231721 60 29 3.0 5.0 0.00 0.00 0.00 59 1015.3
20260506231219 60 18 3.0 7.0 0.00 0.00 0.00 58 1015.3
20260506230712 60 96 3.0 7.0 0.00 0.00 0.00 58 1015.2
20260506230208 60 41 3.0 9.0 0.00 0.00 0.00 59 1015.0
20260506225642 60 88 4.0 9.0 0.00 0.00 0.00 58 1014.9
20260506225138 60 141 3.0 9.0 0.00 0.00 0.00 59 1014.8
20260506224612 61 219 2.0 9.0 0.00 0.00 0.00 60 1014.8
20260506224057 60 89 2.0 6.0 0.00 0.00 0.00 60 1014.6
20260506224030 60 79 3.0 11.0 0.00 0.00 0.00 59 1014.3
20260506223028 60 273 4.0 11.0 0.00 0.00 0.00 58 1014.3
20260506222504 60 224 4.0 11.0 0.00 0.00 0.00 60 1014.2
20260506222005 60 33 4.0 11.0 0.00 0.00 0.00 58 1014.2
20260506221504 60 276 4.0 11.0 0.00 0.00 0.00 62 1014.2
20260506221002 60 71 4.0 11.0 0.00 0.00 0.00 60 1014.0
20260506220503 61 24 4.0 9.0 0.00 0.00 0.00 60 1014.2
20260506220000 61 231 3.0 9.0 0.00 0.00 0.00 61 1014.3
20260506215457 61 124 3.0 9.0 0.00 0.00 0.00 61 1014.5
20260506214932 60 117 3.0 6.0 0.00 0.00 0.00 61 1014.5
20260506214433 60 165 3.0 6.0 0.00 0.00 0.00 63 1014.5
20260506214343 60 141 4.0 7.0 0.00 0.00 0.00 62 1014.5
20260506213353 60 28 4.0 9.0 0.00 0.00 0.00 62 1014.6
20260506212851 60 133 3.0 10.0 0.00 0.00 0.00 61 1014.6
20260506212348 60 115 2.0 10.0 0.00 0.00 0.00 65 1014.7
20260506211819 60 113 3.0 9.0 0.00 0.00 0.00 64 1014.6
20260506211253 59 34 4.0 9.0 0.00 0.00 0.00 62 1014.6
20260506210725 60 45 4.0 8.0 0.00 0.00 0.00 63 1014.7
20260506210222 60 283 3.0 8.0 0.00 0.00 0.00 63 1014.8
20260506205655 60 32 3.0 9.0 0.00 0.00 0.00 64 1015.0
20260506205152 59 33 2.0 9.0 0.00 0.00 0.00 65 1015.0
20260506204640 59 89 4.0 9.0 0.00 0.00 0.00 63 1015.1
20260506204143 60 42 4.0 9.0 0.00 0.00 0.00 63 1015.0
20260506203620 59 85 4.0 8.0 0.00 0.00 0.00 65 1015.0
20260506203110 59 122 4.0 9.0 0.00 0.00 0.00 62 1015.2
20260506202557 59 18 4.0 9.0 0.00 0.00 0.00 62 1015.4
20260506202101 60 6 4.0 9.0 0.00 0.00 0.00 61 1015.4
20260506201533 60 25 3.0 9.0 0.00 0.00 0.00 60 1015.4
20260506201031 60 282 3.0 9.0 0.00 0.00 0.00 61 1015.4
20260506200945 59 62 3.0 9.0 0.00 0.00 0.00 62 1015.6
20260506200000 60 89 3.0 7.0 0.00 0.00 0.00 62 1015.7
20260506195918 60 100 3.0 9.0 0.00 0.00 0.00 64 1015.7
20260506194929 59 63 3.0 9.0 0.00 0.01 0.00 62 1015.8
20260506194401 59 340 3.0 7.0 0.00 0.01 0.00 62 1015.8
20260506193856 60 63 3.0 7.0 0.00 0.01 0.00 63 1016.0
20260506193357 60 72 3.0 9.0 0.00 0.01 0.00 62 1016.0
20260506192833 60 46 3.0 9.0 0.00 0.01 0.00 66 1016.0
20260506192332 59 86 2.0 7.0 0.00 0.01 0.00 66 1015.8
20260506191800 59 91 2.0 7.0 0.00 0.01 0.00 66 1016.0
20260506191257 59 23 2.0 7.0 0.00 0.01 0.00 64 1016.1
20260506190741 58 49 3.0 7.0 0.00 0.01 0.00 65 1016.0
20260506190715 58 61 3.0 7.0 0.00 0.01 0.00 66 1016.2
20260506185718 58 92 3.0 7.0 0.00 0.01 0.00 66 1016.2
20260506185153 58 30 3.0 9.0 0.00 0.01 0.00 66 1016.1
20260506184654 58 55 3.0 9.0 0.00 0.01 0.00 66 1016.2
20260506184128 58 81 3.0 7.0 0.00 0.01 0.00 68 1016.2
20260506183625 58 35 3.0 6.0 0.00 0.01 0.00 66 1016.4
20260506183059 58 234 3.0 10.0 0.00 0.01 0.00 66 1016.6
20260506182531 58 85 3.0 10.0 0.00 0.01 0.00 67 1016.6
20260506182029 57 100 2.0 6.0 0.00 0.01 0.00 67 1016.7
20260506181503 57 117 1.0 5.0 0.00 0.01 0.00 68 1017.0
20260506180936 57 113 1.0 4.0 0.00 0.01 0.00 68 1017.0
20260506180433 57 36 2.0 5.0 0.00 0.01 0.00 68 1017.0
20260506175907 56 123 2.0 7.0 0.00 0.02 0.00 68 1017.4
20260506175401 56 236 3.0 7.0 0.00 0.02 0.00 70 1017.4
20260506174859 56 39 4.0 8.0 0.00 0.02 0.00 68 1017.5
20260506174331 56 42 3.0 8.0 0.00 0.02 0.00 68 1017.6
20260506173803 56 186 2.0 6.0 0.00 0.02 0.00 69 1017.8
20260506173300 56 56 1.0 3.0 0.00 0.02 0.00 70 1017.9
20260506172732 55 89 2.0 5.0 0.00 0.02 0.00 69 1017.8
20260506172232 55 138 3.0 7.0 0.00 0.02 0.00 71 1017.7
20260506171729 55 85 3.0 7.0 0.00 0.02 0.00 69 1017.8
20260506171201 54 52 2.0 6.0 0.00 0.02 0.00 70 1017.8
20260506170701 55 96 1.0 6.0 0.00 0.02 0.00 70 1017.9
20260506170135 54 128 2.0 5.0 0.00 0.02 0.00 73 1017.8
20260506165634 53 86 3.0 9.0 0.00 0.02 0.00 72 1017.8
20260506165552 53 108 3.0 9.0 0.00 0.02 0.00 72 1017.7
20260506164543 53 69 3.0 9.0 0.00 0.02 0.00 72 1017.4
20260506164457 53 78 3.0 9.0 0.00 0.02 0.00 72 1017.3
20260506163510 53 20 3.0 8.0 0.00 0.02 0.00 72 1017.3
20260506162942 53 212 4.0 8.0 0.00 0.02 0.00 73 1017.0
20260506162416 53 98 4.0 11.0 0.00 0.02 0.00 71 1017.0
20260506161851 53 41 5.0 11.0 0.00 0.02 0.00 72 1016.7
20260506161812 53 66 6.0 13.0 0.00 0.02 0.00 73 1016.7
20260506160821 53 42 5.0 12.0 0.00 0.02 0.00 73 1016.6
20260506160259 53 65 4.0 9.0 0.00 0.02 0.00 74 1016.7
20260506160244 52 23 5.0 11.0 0.00 0.02 0.00 76 1016.6
20260506155241 52 49 5.0 11.0 0.00 0.02 0.00 76 1016.5
20260506155223 52 70 4.0 10.0 0.00 0.02 0.00 76 1016.6
20260506154212 51 25 4.0 10.0 0.00 0.02 0.00 78 1016.5
20260506154150 51 72 4.0 9.0 0.00 0.02 0.00 77 1016.3
20260506153631 51 167 4.0 8.0 0.00 0.02 0.00 78 1016.3
20260506152615 51 20 4.0 10.0 0.00 0.02 0.00 77 1016.4
20260506152113 50 134 4.0 10.0 0.00 0.02 0.00 77 1016.5
20260506151604 50 44 4.0 10.0 0.00 0.02 0.00 77 1016.5
20260506151549 50 70 4.0 10.0 0.00 0.02 0.00 78 1016.5
20260506150602 50 55 5.0 9.0 0.00 0.02 0.00 77 1016.7
20260506150057 50 26 5.0 9.0 0.00 0.02 0.00 77 1016.6
20260506145533 50 130 5.0 10.0 0.00 0.02 0.00 79 1016.2
20260506145006 50 58 5.0 10.0 0.00 0.02 0.00 78 1016.2
20260506144438 50 49 5.0 10.0 0.00 0.02 0.00 79 1016.5
20260506143912 50 18 5.0 10.0 0.00 0.02 0.00 79 1016.2
20260506143410 50 107 4.0 9.0 0.00 0.02 0.00 78 1016.2
20260506143345 50 33 3.0 9.0 0.00 0.02 0.00 78 1016.3
20260506142344 50 61 3.0 9.0 0.00 0.02 0.00 80 1016.1
20260506141847 50 97 4.0 10.0 0.00 0.02 0.00 81 1015.9
20260506141323 49 60 6.0 14.0 0.00 0.02 0.00 81 1015.9
20260506140815 49 79 4.0 14.0 0.00 0.02 0.00 80 1016.1
20260506140313 49 27 4.0 10.0 0.00 0.02 0.00 82 1016.2
20260506135745 49 143 5.0 13.0 0.00 0.02 0.00 82 1016.0
20260506135247 49 34 4.0 13.0 0.00 0.02 0.00 82 1016.0
20260506134726 49 53 4.0 8.0 0.00 0.02 0.00 83 1016.4
20260506134227 48 119 4.0 11.0 0.00 0.02 0.00 83 1016.4
20260506133725 48 41 4.0 11.0 0.00 0.02 0.00 83 1016.2
20260506133222 48 82 4.0 9.0 0.00 0.02 0.00 84 1016.3
20260506132652 48 160 4.0 10.0 0.00 0.02 0.00 84 1016.2
20260506132154 47 88 4.0 12.0 0.00 0.02 0.00 85 1015.9
20260506131650 47 55 4.0 12.0 0.00 0.02 0.00 85 1016.0
20260506131152 47 21 3.0 10.0 0.00 0.02 0.00 86 1016.1
20260506130649 47 118 4.0 10.0 0.00 0.02 0.00 86 1016.1
20260506130152 47 46 4.0 9.0 0.00 0.02 0.00 86 1016.0
20260506130116 47 93 3.0 9.0 0.00 0.02 0.00 87 1016.0
20260506125124 47 44 3.0 10.0 0.00 0.02 0.00 87 1016.0
20260506124609 47 85 4.0 10.0 0.00 0.02 0.00 87 1015.7
20260506124113 47 75 4.0 12.0 0.00 0.02 0.00 87 1015.8
20260506123548 47 56 3.0 12.0 0.00 0.02 0.00 87 1015.8
20260506123046 46 36 3.0 11.0 0.00 0.02 0.00 87 1015.9
20260506122545 46 78 3.0 11.0 0.00 0.02 0.00 87 1015.7
20260506122046 46 97 2.0 11.0 0.00 0.02 0.00 87 1015.6
20260506121545 46 89 2.0 4.0 0.00 0.02 0.00 87 1015.4
20260506121031 46 57 2.0 7.0 0.00 0.02 0.00 87 1015.4
20260506120502 46 85 2.0 7.0 0.00 0.02 0.00 87 1015.3
20260506120003 46 103 2.0 7.0 0.00 0.02 0.00 87 1015.3
20260506115502 46 53 2.0 7.0 0.00 0.02 0.00 87 1015.1
20260506115002 46 53 3.0 7.0 0.00 0.02 0.00 87 1015.1
20260506114456 46 54 3.0 7.0 0.00 0.02 0.00 87 1015.1
20260506113957 46 16 2.0 7.0 0.00 0.02 0.00 87 1015.2
20260506113459 46 250 2.0 7.0 0.00 0.02 0.00 86 1015.3
20260506112957 46 162 1.0 7.0 0.00 0.02 0.00 86 1015.2
20260506112438 46 139 2.0 7.0 0.00 0.02 0.00 86 1015.0
20260506111919 46 169 2.0 5.0 0.00 0.02 0.00 85 1015.0
20260506111839 46 98 2.0 8.0 0.00 0.02 0.00 85 1015.0
20260506110833 46 214 2.0 8.0 0.00 0.02 0.00 85 1014.8
20260506110311 46 157 1.0 4.0 0.00 0.02 0.00 85 1014.6
20260506105748 46 193 1.0 4.0 0.00 0.02 0.00 85 1014.6
20260506105249 46 91 1.0 6.0 0.00 0.02 0.00 85 1014.5
20260506104729 46 78 2.0 8.0 0.00 0.02 0.00 85 1014.3
20260506104706 46 153 2.0 8.0 0.00 0.02 0.00 85 1013.9
20260506103709 47 206 2.0 8.0 0.00 0.02 0.00 85 1013.8
20260506103204 46 108 2.0 8.0 0.00 0.02 0.00 85 1013.7
20260506102703 46 108 1.0 6.0 0.00 0.02 0.00 86 1013.7
20260506102652 47 22 2.0 6.0 0.00 0.02 0.00 86 1013.4
20260506101704 46 68 2.0 6.0 0.00 0.02 0.00 86 1013.4
20260506101654 47 103 2.0 6.0 0.00 0.02 0.00 86 1013.3
20260506100639 46 25 2.0 9.0 0.00 0.02 0.00 86 1013.1
20260506100631 46 20 2.0 6.0 0.00 0.02 0.00 86 1012.9
20260506095638 47 88 2.0 5.0 0.00 0.02 0.00 86 1012.7
20260506095121 47 358 2.0 5.0 0.00 0.02 0.00 87 1012.7
20260506094622 47 82 3.0 11.0 0.00 0.02 0.00 87 1012.6
20260506094059 47 41 4.0 11.0 0.00 0.02 0.00 86 1012.4
20260506093557 47 11 4.0 8.0 0.00 0.02 0.00 86 1012.3
20260506093042 47 55 4.0 12.0 0.00 0.02 0.00 86 1012.1
20260506092519 47 47 4.0 12.0 0.00 0.03 0.00 86 1012.1
20260506092020 47 15 4.0 10.0 0.00 0.03 0.00 86 1012.2
20260506091521 47 42 3.0 10.0 0.00 0.04 0.00 86 1012.2
20260506091017 47 55 3.0 10.0 0.00 0.04 0.00 86 1012.3
20260506090514 47 359 2.0 8.0 0.00 0.04 0.00 86 1012.4
20260506090013 47 12 3.0 8.0 0.00 0.04 0.00 86 1012.3
20260506085449 47 26 3.0 8.0 0.00 0.05 0.00 86 1012.3
20260506084941 47 41 3.0 8.0 0.00 0.06 0.00 86 1012.4
20260506084420 47 108 3.0 8.0 0.00 0.07 0.00 86 1012.3
20260506083913 47 54 4.0 8.0 0.00 0.08 0.00 86 1012.0
20260506083413 47 89 4.0 8.0 0.00 0.08 0.00 86 1012.1
20260506082915 47 38 3.0 11.0 0.00 0.10 0.00 86 1012.3
20260506082415 46 14 3.0 11.0 0.00 0.11 0.00 87 1012.3
20260506081911 46 128 3.0 7.0 0.00 0.18 0.00 87 1012.1
20260506081410 46 51 3.0 8.0 0.00 0.23 0.00 88 1012.0
20260506080910 46 21 3.0 8.0 0.00 0.25 0.00 87 1012.0
20260506080411 46 53 3.0 8.0 0.00 0.28 0.00 88 1012.0
20260506073308 46 99 4.0 10.0 0.00 0.53 0.00 90 1011.4
20260506072742 46 44 2.0 7.0 0.00 0.59 0.00 90 1011.6
20260506072219 46 155 3.0 11.0 0.00 0.64 0.00 91 1011.8
20260506072151 46 20 4.0 11.0 0.00 0.66 0.00 91 1011.5
20260506071139 46 47 4.0 9.0 0.00 0.69 0.00 92 1011.6
20260506070641 46 69 5.0 15.0 0.00 0.75 0.00 92 1011.8
20260506070137 46 62 5.0 15.0 0.00 0.76 0.00 92 1011.4
20260506062515 46 313 5.0 12.0 0.00 1.02 0.00 93 1012.1
20260506062018 46 71 5.0 12.0 0.00 1.03 0.00 93 1012.2
20260506061511 46 13 4.0 12.0 0.00 1.04 0.00 94 1012.2
20260506061012 46 49 5.0 10.0 0.00 1.04 0.00 94 1012.1
20260506060506 46 141 5.0 10.0 0.00 1.05 0.00 94 1012.1
20260506051248 46 38 2.0 6.0 0.00 1.06 0.00 93 1012.2
20260506050723 46 40 3.0 9.0 0.00 1.06 0.00 92 1012.0
20260506050215 46 70 3.0 9.0 0.00 1.06 0.00 92 1011.9
20260506044641 47 81 4.0 8.0 0.00 1.06 1.06 91 1011.9
20260506044626 47 133 4.0 9.0 0.00 1.06 1.06 91 1011.6
20260506043634 47 115 5.0 10.0 0.00 1.06 1.06 91 1011.6
20260506043107 47 26 5.0 10.0 0.00 1.06 1.06 91 1011.4
20260506042605 47 66 5.0 10.0 0.00 1.06 1.06 91 1011.4
20260506042035 47 331 5.0 15.0 0.00 1.06 1.06 92 1011.6
20260506041534 47 269 5.0 15.0 0.00 1.06 1.06 92 1011.8
20260506041036 47 93 4.0 11.0 0.00 1.06 1.06 92 1011.4
20260506040957 47 23 4.0 11.0 0.00 1.06 1.06 92 1011.2
20260506040005 47 56 4.0 13.0 0.00 1.06 1.06 93 1011.1
20260506035437 47 43 5.0 13.0 0.00 1.06 1.06 93 1011.2
20260506034934 47 86 5.0 12.0 0.00 1.06 1.06 93 1011.3
20260506034407 47 53 4.0 8.0 0.00 1.06 1.06 93 1010.8
20260506033903 47 53 3.0 10.0 0.00 1.06 1.06 93 1010.7
20260506033400 47 238 3.0 10.0 0.00 1.06 1.06 93 1010.7
20260506032853 47 26 3.0 7.0 0.00 1.06 1.06 93 1010.7
20260506032351 47 48 3.0 7.0 0.00 1.06 1.06 93 1010.7
20260506031824 47 62 3.0 7.0 0.00 1.06 1.06 93 1010.4
20260506031747 47 58 4.0 9.0 0.00 1.06 1.06 93 1010.3
20260506030731 47 29 4.0 9.0 0.00 1.06 1.06 93 1010.0
20260506030228 47 63 4.0 9.0 0.00 1.06 1.06 93 1010.1
20260506025724 47 96 3.0 8.0 0.00 1.06 1.06 93 1010.0
20260506025221 47 105 2.0 8.0 0.00 1.06 1.06 93 1009.9
20260506024652 47 62 3.0 7.0 0.00 1.06 1.06 93 1010.0
20260506024150 47 134 4.0 9.0 0.00 1.06 1.06 93 1009.7
20260506023622 47 21 4.0 10.0 0.00 1.06 1.06 93 1009.7
20260506023118 47 86 3.0 10.0 0.00 1.06 1.06 93 1009.5
20260506022616 47 42 3.0 9.0 0.00 1.06 1.06 92 1009.3
20260506022113 47 31 3.0 9.0 0.00 1.06 1.06 92 1009.3
20260506021552 47 63 3.0 10.0 0.00 1.06 1.06 92 1009.3
20260506021053 47 23 3.0 10.0 0.00 1.06 1.06 92 1009.1
20260506020550 47 84 4.0 10.0 0.00 1.06 1.06 92 1009.2
20260506020053 47 7 4.0 10.0 0.00 1.06 1.06 92 1009.2
20260506020029 47 139 4.0 9.0 0.00 1.06 1.06 92 1009.3
20260506015535 47 84 5.0 13.0 0.00 1.06 1.06 92 1009.2
20260506014517 47 35 4.0 13.0 0.00 1.06 1.06 92 1009.4
20260506014457 47 58 3.0 11.0 0.00 1.06 1.06 92 1009.5
20260506013513 47 36 2.0 11.0 0.00 1.06 1.06 92 1009.6
20260506013011 48 65 2.0 6.0 0.00 1.06 1.06 92 1009.8
20260506012514 48 92 3.0 9.0 0.00 1.06 1.06 92 1009.5
20260506012010 47 57 4.0 9.0 0.00 1.06 1.06 92 1009.2
20260506011955 47 47 3.0 7.0 0.00 1.06 1.06 92 1008.6
20260506010946 47 40 3.0 9.0 0.00 1.06 1.06 92 1008.7
20260506010924 47 72 4.0 11.0 0.00 1.06 1.06 92 1008.5